Weather History for Pian Rosa, Italy

Change the Weather History Date:

Thursday, May 3, 2012

  Actual Average Record
Temperature  
Mean Temperature 21 °F -  
Max Temperature 27 °F 29 °F 37 °F (1999)
Min Temperature 15 °F 19 °F 15 °F (1998)
Degree Days  
Heating Degree Days 44    
Moisture  
Dew Point 16 °F    
Average Humidity 76    
Maximum Humidity 80    
Minimum Humidity 67    
Precipitation  
Precipitation 0.00 in - - ()
Sea Level Pressure  
Sea Level Pressure 30.01 in    
Wind  
Wind Speed 4 mph ()    
Max Wind Speed 14 mph    
Max Gust Speed -    
Visibility 6.7 miles    
Events Fog    
Averages and records for this station are not official NWS values.
T = Trace of Precipitation, MM = Missing Value Source: Averaged Metar Reports

Daily Weather History Graph

Daily Weather History Graph

Search for Another Location

Airport:

Trip Planner

Search our weather history database for the weather conditions in past years. The results will help you decide how hot, cold, wet, or windy it might be!

Date:

Astronomy

May. 03, 2012 Rise Set
Actual Time 6:12 AM CEST 8:39 PM CEST
Civil Twilight 5:39 AM CEST 9:13 PM CEST
Nautical Twilight 4:57 AM CEST 9:55 PM CEST
Astronomical Twilight 4:10 AM CEST 10:43 PM CEST
Moon 5:37 PM CEST (5/3) 4:17 AM CEST (5/3)
Length of Visible Light 15h 33m
Length of Day
14h 27m
Waxing Gibbous, 89% of the Moon is Illuminated
May 3
Waxing Gibbous
May 6
Full
May 12
Last Quarter
May 21
New
May 28
First Quarter

Hourly Weather History & Observations

Time (CEST) Temp. Windchill Dew Point Humidity Pressure Visibility Wind Dir Wind Speed Gust Speed Precip Events Conditions
12:55 AM 17.6 °F 5.7 °F 12.2 °F 79% 30.06 in 0.5 mi ENE 10.4 mph - N/A Fog Light Freezing Fog
1:55 AM 17.6 °F 7.3 °F 10.4 °F 73% 30.04 in - ENE 8.1 mph - N/A   Clear
2:00 AM 17 °F - 11 °F 68%  in 12 mi ENE 8.1 mph - - Fog Light Fog
2:55 AM 17.6 °F 3.7 °F 12.2 °F 79% 30.01 in - NE 13.8 mph - N/A   Clear
3:55 AM 17.6 °F 10.7 °F 12.2 °F 79% 30.01 in - East 4.6 mph - N/A   Clear
4:55 AM 15.8 °F 8.6 °F 10.4 °F 79% 30.01 in - East 4.6 mph - N/A   Clear
5:00 AM 17 °F - 11 °F 67%  in 9 mi East 4.6 mph - -   Partly Cloudy
6:55 AM 17.6 °F 9.3 °F 10.4 °F 73% 30.01 in - East 5.8 mph - N/A   Clear
7:55 AM 17.6 °F - 12.2 °F 79% 30.01 in - Calm Calm - N/A   Clear
8:00 AM 18 °F - 12 °F 70%  in 47 mi Calm Calm - -  
8:55 AM 21.2 °F - 15.8 °F 80% 30.01 in - Calm Calm - N/A   Clear
10:55 AM 24.8 °F - 19.4 °F 80% 30.01 in - Calm Calm - N/A   Clear
11:00 AM 25 °F - 20 °F 73%  in 47 mi Calm Calm - -  
12:55 PM 26.6 °F - 21.2 °F 80% 30.01 in - Calm Calm - N/A   Clear
1:55 PM 26.6 °F 22.6 °F 21.2 °F 80% 30.01 in 6.2 mi Variable 3.5 mph - N/A   Partly Cloudy
2:00 PM 27 °F - 21 °F 70%  in 16 mi 3.5 mph - -   Scattered Clouds
2:55 PM 26.6 °F - 21.2 °F 80% 30.01 in 6.2 mi Calm Calm - N/A   Scattered Clouds
3:55 PM 26.6 °F - 21.2 °F 80% 30.01 in 6.2 mi Calm Calm - N/A   Scattered Clouds
4:55 PM 26.6 °F - 21.2 °F 80% 30.01 in 6.2 mi Calm Calm - N/A   Scattered Clouds
5:00 PM 27 °F - 21 °F 70%  in 16 mi Calm Calm - -   Partly Cloudy
5:55 PM 24.8 °F - 19.4 °F 80% 30.01 in 6.2 mi Calm Calm - N/A   Scattered Clouds
6:55 PM 26.6 °F - 21.2 °F 80% 30.01 in 3.7 mi Variable 1.2 mph - N/A   Scattered Clouds
7:55 PM 26.6 °F - 19.4 °F 74% 30.01 in 1.2 mi Calm Calm - N/A   Mist
8:00 PM 26 °F - 20 °F 71%  in 1 mi Calm Calm - -   Mist
8:55 PM 23.0 °F - 17.6 °F 80% 30.01 in 4.3 mi Calm Calm - N/A   Scattered Clouds
9:55 PM 23.0 °F - 17.6 °F 80% 30.01 in - Calm Calm - N/A   Clear
10:55 PM 21.2 °F - 14.0 °F 74% 30.01 in - Calm Calm - N/A   Clear
11:00 PM 21 °F - 15 °F 67%  in 6 mi Calm Calm - -  
11:55 PM 19.4 °F - 14.0 °F 80% 30.01 in - Calm Calm - N/A   Clear